Home > Time Zones > World Clock > Weather > Egypt > Cairo > Past weeks

Flag Weather past 2 weeks in Cairo, Egypt

Now
64 °F

Clear.


Feels Like: 64 °F
Forecast: 71 / 86 °F
Wind: 5 mph from Southeast

Location: Cairo Airport

Current Time: Nov 1, 2014 at 6:44:55 AM

Latest Report: Nov 1, 2014 at 6:00 AM


Visibility: 10 mi

Pressure: 30.01 "Hg

Humidity: 73%

Dew point: 55 °F

Location of CairoLocation

Historic Weather in Cairo — Graph

°F

Cairo temperature yesterday

Maximum temperature yesterday: 79 °F (at 2:30 PM)
Minimum temperature yesterday: 64 °F (at 6:30 AM)
Average temperature yesterday: 71 °F

Past Weeks' High & Low Weather Summary

 TemperatureHumidityPressure
High91 °F (Oct 25, 12:00 PM)100% (Oct 18, 12:00 AM)30.15 "Hg (Oct 18, 12:00 AM)
Low36 °F (Oct 18, 12:00 AM)15% (Oct 25, 1:00 PM)29.80 "Hg (Oct 19, 3:00 PM)
Average75 °F52%30.00 "Hg
* Reported Oct 17 5:30 AM — Nov 1 5:30 AM, Cairo, Weather by CustomWeather, © 2014

Note: Actual official high and low records may vary slightly from our data, if they occured in-between our weather recording intervals... More about our weather records

Advertising

Cairo weather history for previous 24 hours

 ConditionsComfort  
Time TempWeatherWind HumidityBarometerVisibility
5:30 AM
Nov 1
64 °FClear.No wind68%30.01 "Hg10 mi
5:00 AM64 °FClear.No wind68%30.01 "Hg10 mi
4:30 AM64 °FClear.No wind73%30.01 "Hg10 mi
4:00 AM64 °FClear.No wind73%30.01 "Hg10 mi
3:30 AM66 °FClear.No wind68%30.01 "Hg10 mi
3:00 AM66 °FClear.No wind68%30.01 "Hg10 mi
2:30 AM64 °FClear.No wind68%30.01 "Hg10 mi
2:00 AM66 °FClear.No wind68%30.01 "Hg10 mi
1:30 AM66 °FClear.No wind68%30.01 "Hg10 mi
1:00 AM66 °FClear.1 mph68%30.01 "Hg10 mi
12:30 AM66 °FClear.No wind68%30.01 "Hg10 mi
12:00 AM66 °FClear.5 mph68%30.01 "Hg10 mi
11:30 PM
Oct 31
66 °FClear.5 mph68%30.01 "Hg10 mi
11:00 PM66 °FClear.No wind64%30.01 "Hg10 mi
10:30 PM68 °FClear.No wind64%30.04 "Hg10 mi
10:00 PM70 °FClear.3 mph64%30.04 "Hg10 mi
9:30 PM70 °FClear.5 mph60%30.04 "Hg10 mi
9:00 PM70 °FClear.5 mph60%30.04 "Hg10 mi
8:30 PM72 °FClear.6 mph57%30.04 "Hg10 mi
8:00 PM72 °FClear.7 mph57%30.04 "Hg10 mi
7:30 PM72 °FClear.3 mph57%30.01 "Hg10 mi
7:00 PM73 °FPassing clouds.5 mph50%30.01 "HgN/A
6:30 PM73 °FPassing clouds.6 mph50%30.01 "HgN/A
6:00 PM75 °FPassing clouds.7 mph44%29.98 "HgN/A
5:30 PM75 °FPassing clouds.6 mph44%29.98 "HgN/A
5:00 PM77 °FPassing clouds.8 mph42%29.98 "HgN/A
4:30 PM77 °FPassing clouds.12 mph39%29.98 "HgN/A
4:00 PM77 °FPassing clouds.9 mph39%29.98 "HgN/A
3:30 PM77 °FPassing clouds.8 mph42%29.98 "HgN/A
3:00 PM77 °FPassing clouds.9 mph42%29.98 "HgN/A
2:30 PM79 °FScattered clouds.9 mph39%29.98 "HgN/A
2:00 PM77 °FScattered clouds.8 mph42%29.98 "HgN/A
1:30 PM77 °FScattered clouds.10 mph42%29.98 "HgN/A
1:00 PM77 °FScattered clouds.8 mph42%29.98 "HgN/A
12:30 PM75 °FScattered clouds.12 mph44%29.98 "HgN/A
12:00 PM75 °FScattered clouds.9 mph47%30.01 "HgN/A
11:30 AM75 °FScattered clouds.8 mph47%30.01 "HgN/A
11:00 AM73 °FScattered clouds.6 mph53%30.01 "HgN/A
10:30 AM73 °FScattered clouds.8 mph50%30.01 "HgN/A
10:00 AM73 °FPassing clouds.6 mph53%30.01 "HgN/A
9:30 AM72 °FScattered clouds.6 mph61%30.01 "HgN/A
9:00 AM70 °FScattered clouds.6 mph64%30.01 "HgN/A
8:30 AM70 °FPassing clouds.6 mph64%30.01 "HgN/A
8:00 AM68 °FPassing clouds.6 mph69%30.01 "HgN/A
7:30 AM66 °FSunny.6 mph73%30.01 "Hg10 mi
7:00 AM64 °FSunny.No wind78%30.01 "Hg10 mi
6:30 AM64 °FSunny.No wind73%30.01 "Hg10 mi
6:00 AM66 °FClear.6 mph73%30.01 "Hg10 mi
Weather by CustomWeather, © 2014

See weather overviewHow to use our weather pages